#�ϑ�����,���ϕ���,���ϕ���,�ő啗��,�ő啗����������,�ő�u�ԕ���,�ő�u�ԕ�����������
#(�N����),(m/s)   ,(16����),(m/s)   ,(16����)        ,(m/s)       ,(16����)            
2012/11/11 6:43,1.3,5,1.3,5,1.4,5
2012/11/11 6:44,1.7,4,1.7,4,2,2
2012/11/11 6:45,2.8,4,2.8,4,4.9,3
2012/11/11 6:46,3.1,4,3.2,3,5.2,3
2012/11/11 6:47,3.1,4,3.2,3,4.8,4
2012/11/11 6:48,3.1,4,3.1,3,4.3,5
2012/11/11 6:49,3,4,3.1,3,3.7,4
2012/11/11 6:50,2.8,4,2.9,3,3.5,5
2012/11/11 6:51,2.8,4,2.8,3,5.1,3
2012/11/11 6:52,2.8,4,2.8,3,5.2,4
2012/11/11 6:53,2.8,4,2.9,3,4.3,5
2012/11/11 6:54,2.8,4,2.8,3,3.7,3
2012/11/11 6:55,2.8,4,2.9,3,4.9,4
2012/11/11 6:56,2.7,4,2.8,4,4.1,4
2012/11/11 6:57,2.7,4,2.7,4,4.4,3
2012/11/11 6:58,2.7,3,2.7,4,4.4,4
2012/11/11 6:59,2.9,3,2.9,4,5.6,3
2012/11/11 7:00,3,3,3,3,5.8,4
2012/11/11 7:01,3.2,3,3.2,3,5.1,3
2012/11/11 7:02,3.2,3,3.2,3,5.4,1
2012/11/11 7:03,3.3,3,3.3,3,6,3
2012/11/11 7:04,3.5,3,3.5,3,6.8,2
2012/11/11 7:05,3.6,3,3.6,3,5.4,4
2012/11/11 7:06,3.7,3,3.7,3,6.7,4
2012/11/11 7:07,3.7,3,3.8,3,5.2,4
2012/11/11 7:08,3.9,3,3.9,3,5.8,3
2012/11/11 7:09,3.8,3,3.8,3,5.5,3
2012/11/11 7:10,3.7,3,3.8,3,4.9,3
2012/11/11 7:11,3.6,3,3.7,3,5.6,3
2012/11/11 7:12,3.7,3,3.7,3,5.4,3
2012/11/11 7:13,3.7,3,3.7,3,4.3,3
2012/11/11 7:14,3.5,3,3.7,3,4.4,2
2012/11/11 7:15,3.5,3,3.5,3,4.7,2
2012/11/11 7:16,3.5,3,3.5,3,4.8,2
2012/11/11 7:17,3.6,3,3.6,3,5.7,3
2012/11/11 7:18,3.6,3,3.6,3,5.4,3
2012/11/11 7:19,3.7,3,3.7,3,6.1,3
2012/11/11 7:20,3.7,3,3.7,3,4.7,4
2012/11/11 7:21,3.7,3,3.7,3,5.4,4
2012/11/11 7:22,3.8,3,3.8,3,5.8,2
2012/11/11 7:23,3.7,3,3.8,3,4.2,3
2012/11/11 7:24,3.6,3,3.7,3,4.8,3
2012/11/11 7:25,3.8,3,3.8,3,6,3
2012/11/11 7:26,3.8,3,3.9,3,6.4,3
2012/11/11 7:27,3.7,3,3.8,3,4.2,3
2012/11/11 7:28,3.6,3,3.7,3,4.7,4
2012/11/11 7:29,3.4,3,3.6,3,3.8,3
2012/11/11 7:30,3.3,3,3.4,3,3,2
2012/11/11 7:31,3.2,3,3.3,3,3.6,3
2012/11/11 7:32,3.1,3,3.2,3,3.9,3
2012/11/11 7:33,3.1,3,3.1,3,3.9,3
2012/11/11 7:34,3,3,3.1,3,2.7,4
2012/11/11 7:35,2.7,3,3,3,2.5,3
2012/11/11 7:36,2.5,3,2.7,3,3.1,3
2012/11/11 7:37,2.3,3,2.5,3,2.2,3
2012/11/11 7:38,2.1,3,2.3,3,2.1,2
2012/11/11 7:39,2,3,2.1,3,2.5,3
2012/11/11 7:40,2,3,2,3,3.5,3
2012/11/11 7:41,2,3,2,3,4.8,3
2012/11/11 7:42,2,3,2,3,5.4,4
2012/11/11 7:43,2.1,3,2.1,3,4.4,3
2012/11/11 7:44,2.2,3,2.2,3,4.3,4
2012/11/11 7:45,2.3,3,2.3,3,3.6,4
2012/11/11 7:46,2.3,3,2.3,3,2.5,3
2012/11/11 13:27,6.7,3,6.7,3,6.7,3
2012/11/11 13:28,6.1,3,6.7,3,6.8,4
2012/11/11 13:29,4,3,5.6,3,5.7,2
2012/11/11 13:30,3.9,3,4,3,5,4
2012/11/11 13:31,3.6,3,3.9,3,4.9,3
2012/11/11 13:32,3.7,3,3.8,3,7,4
2012/11/11 13:33,3.7,3,3.8,3,6.3,3
2012/11/11 13:34,3.6,3,3.7,3,5.6,3
2012/11/11 13:35,3.7,3,3.7,3,7,3
2012/11/11 13:36,3.7,3,3.7,3,6.2,3
2012/11/11 13:37,3.6,3,3.6,3,4.4,3
2012/11/11 13:38,3.5,3,3.6,3,4.9,3
2012/11/11 13:39,3.6,3,3.6,3,5.4,3
2012/11/11 13:40,3.5,3,3.6,3,5.8,5
2012/11/11 13:41,3.7,4,3.7,3,6,3
2012/11/11 13:42,3.9,4,3.9,4,7.8,3
2012/11/11 13:43,4.1,3,4.1,3,7.2,3
2012/11/11 13:44,4.1,3,4.1,3,4.5,3
2012/11/11 13:45,4,3,4.1,3,5.4,5
2012/11/11 13:46,4,3,4,3,5,4
2012/11/11 13:47,4.1,3,4.1,3,6.2,2
2012/11/11 13:48,4.1,3,4.1,3,5.2,3
2012/11/11 13:49,4.1,3,4.1,3,6.4,4
2012/11/11 13:50,4.3,3,4.3,3,7,5
2012/11/11 13:51,4.2,3,4.3,3,6.4,3
2012/11/11 13:52,3.8,3,4.1,3,4.4,3
2012/11/11 13:53,3.7,3,3.8,3,6.2,4
2012/11/11 13:54,3.9,3,3.9,3,6.8,3
2012/11/11 13:55,4,3,4,3,6.4,3
2012/11/11 13:56,4,3,4.1,3,6,2
2012/11/11 13:57,4,3,4.1,3,6.4,4
2012/11/11 13:58,3.9,3,4,3,5.1,3
2012/11/11 13:59,3.8,3,3.9,3,5.2,3
2012/11/11 14:00,3.7,3,3.8,3,5.7,3
2012/11/11 14:01,3.8,3,3.8,3,6.7,3
2012/11/11 14:02,4,3,4,3,6.1,3
2012/11/11 15:50,4.3,4,4.3,4,4.8,3
2012/11/11 15:51,3.5,4,4.3,4,4.8,3
2012/11/11 15:52,3.2,3,3.3,4,3.9,3
2012/11/11 15:53,3.2,3,3.2,4,4.1,3
2012/11/11 15:54,3.4,3,3.4,4,4.3,2
2012/11/11 15:55,3.4,3,3.4,4,4.7,2
2012/11/11 15:56,3.2,3,3.4,4,3.8,3
2012/11/11 15:57,3.2,3,3.2,4,4.5,3
2012/11/11 15:58,3.1,3,3.2,4,4.3,4
2012/11/11 15:59,3.2,3,3.2,4,4.5,3
2012/11/11 16:00,3.3,3,3.3,4,5.6,3
2012/11/11 16:01,3.3,3,3.3,3,5.2,4
2012/11/11 16:02,3.2,3,3.3,3,4.4,4
2012/11/11 16:03,3.2,3,3.2,3,3.9,3
2012/11/11 16:04,3.2,3,3.2,3,5.4,3
2012/11/11 16:05,3.1,3,3.2,3,3.9,4
2012/11/11 16:06,3.2,3,3.2,3,5.6,5
2012/11/11 16:07,3.2,3,3.3,3,4.4,3
2012/11/11 16:08,3.1,3,3.2,3,3.1,3
2012/11/11 16:09,3.1,3,3.1,3,4.9,2
2012/11/11 16:10,3,3,3.1,3,5,2
2012/11/11 16:11,3,3,3,3,5,3
2012/11/11 16:12,3,3,3,3,3.8,3
2012/11/11 16:13,2.9,3,3,3,3.2,1
2012/11/11 16:14,2.7,3,2.9,3,3.5,3
2012/11/11 16:15,2.8,3,2.8,3,4.2,3
2012/11/11 16:16,2.6,3,2.7,3,3.2,4
2012/11/11 16:17,2.5,3,2.6,3,3.2,2
2012/11/11 16:18,2.6,3,2.6,3,4.7,3
2012/11/11 16:19,2.6,3,2.6,3,3.6,2
2012/11/11 16:20,2.4,2,2.6,3,3.5,2
2012/11/11 16:21,2.3,2,2.4,3,3.3,1
2012/11/11 16:22,2.2,2,2.3,3,3.6,2
2012/11/11 16:23,2.3,2,2.3,3,4.3,3
2012/11/11 16:24,2.2,2,2.3,3,2.9,1
2012/11/11 16:25,2.3,2,2.3,3,4.8,3
2012/11/11 16:26,2.4,2,2.4,3,5.1,3
2012/11/11 16:27,2.5,2,2.5,3,4.7,3
2012/11/11 16:28,2.4,2,2.4,3,4.1,2
2012/11/11 16:29,2.4,2,2.4,3,4.3,3
2012/11/11 16:30,2.4,2,2.4,2,4.2,1
2012/11/11 16:31,2.5,2,2.5,2,4.7,2
2012/11/11 16:32,2.5,2,2.5,2,4.4,2
2012/11/11 16:33,2.6,2,2.6,2,4.7,4
2012/11/11 16:34,2.7,2,2.7,2,4.9,3
2012/11/11 16:35,2.6,2,2.7,2,4.8,2
2012/11/11 16:36,2.7,2,2.7,2,4.8,1
2012/11/11 16:37,2.6,2,2.7,2,3.3,3
2012/11/11 16:38,2.5,2,2.6,2,3.2,1
2012/11/11 16:39,2.4,2,2.4,2,2.9,1
2012/11/11 16:40,2.4,2,2.4,2,3.5,3
2012/11/11 16:41,2.4,2,2.4,2,3.6,3
2012/11/11 16:42,2.3,2,2.4,2,3.3,2
2012/11/11 16:43,2.4,2,2.4,2,5.2,2
2012/11/11 16:44,2.5,2,2.6,2,5.1,3
2012/11/11 16:45,2.5,2,2.5,2,3.7,3
2012/11/11 16:46,2.5,2,2.5,2,5.2,3
